Weather Roundup
Issued by NWS Springfield, MO

Home | Current Version | Previous Version | Text Only | Print | Product List | Glossary On
Versions: 1 2 3 4 5 6 7 8 9 10 11 12 13 14 15 16 17 18 19 20 21 22 23 24 25 26 27 28 29 30 31 32 33 34 35 36 37 38 39 40 41 42 43 44 45 46 47 48 49 50
000
NZUS99 KSGF 260459
HRRSGF

HOURLY WEATHER
NATIONAL WEATHER SERVICE SPRINGFIELD MO
1100 PM CST THU DEC 25 2014

......SGF CWA......

CITY           SKY/WX    TMP DP  RH WIND       PRES   REMARKS
SPRINGFIELD    CLOUDY    45  30  55 S15       29.91R
JOPLIN         MOCLDY    48  29  47 S17G28    29.89R
WEST PLAINS    PTCLDY    42  34  73 S9        30.01R
ROLLA          PTCLDY    43  33  68 S17G23    29.94R
OSAGE BEACH    MOCLDY    46  28  49 S12       29.93R

......SURROUNDING SGF CWA......

CITY           SKY/WX    TMP DP  RH WIND       PRES   REMARKS
CHANUTE        CLOUDY    48  31  51 S16       29.82S
PARSONS        MOCLDY    49  31  49 S14G22    29.85S
COFFEYVILLE    MOCLDY    50  30  46 S16G23    29.86R
EMPORIA        MOCLDY    48  29  47 S23G33    29.73S
SILOAM SPRINGS MOCLDY    46  28  49 S12       29.94S
HARRISON AR    PTCLDY    47  33  58 S13       29.96S
NEAR YELLVILLE MOCLDY    46  30  53 S8        30.00R

......KANSAS AND MISSOURI......

CITY           SKY/WX    TMP DP  RH WIND       PRES   REMARKS
KANSAS CTY INT PTCLDY    48  30  49 S22       29.78R
DOWNTOWN KC    PTCLDY    50  30  46 S13       29.81R
COLUMBIA       PTCLDY    44  31  60 S12       29.92R
SEDALIA        MOCLDY    46  30  53 S14       29.88R
ST JOSEPH      CLEAR     45  31  58 S10       29.78R
ST LOUIS       MOCLDY    45  35  68 S12       30.00R
SPIRIT OF STL  MOCLDY    44  35  70 S3        29.98R
KIRKSVILLE     PTCLDY    43  31  62 S13       29.87R
WICHITA        MOCLDY    48  30  49 S17G25    29.73R
TOPEKA         CLEAR     50  30  46 S9        29.77R
OLATHE         PTCLDY    48  30  49 S16G23    29.79S

......TENNESSEE......

CITY           SKY/WX    TMP DP  RH WIND       PRES   REMARKS
MEMPHIS        PTCLDY    44  35  70 S7        30.16R
NASHVILLE      CLEAR     38  33  82 SE3       30.21S

......ARKANSAS.......

CITY           SKY/WX    TMP DP  RH WIND       PRES   REMARKS
FAYETTEVILLE   MOCLDY    46  32  58 S13       29.95R
FT SMITH       CLOUDY    44  33  65 NE3       29.99R
LITTLE ROCK    MOCLDY    48  35  60 S12G20    30.10R

......OKLAHOMA.......

CITY           SKY/WX    TMP DP  RH WIND       PRES   REMARKS
TULSA          MOCLDY    52  30  43 S15       29.88R
PONCA CITY     CLOUDY    52  28  39 S15G28    29.80R
MCALESTER      PTCLDY    52  34  50 S9        29.94R
OKLAHOMA CITY  MOCLDY    49  29  46 S18G28    29.82R

......IOWA............

CITY           SKY/WX    TMP DP  RH WIND       PRES   REMARKS
DES MOINES     CLOUDY    42  31  64 S13       29.78R
QUAD CITIES    PTCLDY    42  33  70 S13G22    29.92R

......ILLINOIS........

CITY           SKY/WX    TMP DP  RH WIND       PRES   REMARKS
QUINCY         PTCLDY    43  32  65 S13       29.94R
CHICAGO        MOCLDY    39  32  76 S14       30.01R WCI  31




USA.gov is the U.S. government's official web portal to all federal, state and local government web resources and services.